GW3570 Weather Reports


Display with metric or nautical units.
time (UTC)temp
F
wind
direction
speed
MPH
gust
MPH
rain 1hr
in
rain 24hr
in
rain mn
in
humidity
%
barometer
mb
20260903003153 90 114 1.0 1.0 0.00 0.00 0.00 57 1013.2
20260903002648 91 116 1.0 1.0 0.00 0.00 0.00 55 1013.1
20260903002142 92 121 0.0 1.0 0.00 0.00 0.00 53 1013.1
20260903001636 93 113 1.0 1.0 0.00 0.00 0.00 51 1013.2
20260903001131 93 114 1.0 1.0 0.00 0.00 0.00 51 1013.1
20260903000627 94 117 1.0 1.0 0.00 0.00 0.00 50 1013.3
20260903000126 94 129 0.0 0.0 0.00 0.00 0.00 51 1013.2
20260902235625 95 118 1.0 1.0 0.00 0.00 0.00 48 1013.3
20260902235120 96 128 0.0 1.0 0.00 0.00 0.00 48 1013.2
20260902234614 96 129 0.0 1.0 0.00 0.00 0.00 43 1013.1
20260902234113 97 123 1.0 1.0 0.00 0.00 0.00 47 1013.3
20260902233608 97 128 1.0 1.0 0.00 0.00 0.00 44 1013.4
20260902233102 97 124 1.0 2.0 0.00 0.00 0.00 44 1013.2
20260902232556 97 110 1.0 2.0 0.00 0.00 0.00 46 1013.1
20260902232055 97 134 2.0 2.0 0.00 0.00 0.00 43 1013.4
20260902231550 97 136 2.0 2.0 0.00 0.00 0.00 42 1013.3
20260902231044 97 109 3.0 3.0 0.00 0.00 0.00 43 1013.2
20260902230539 97 130 2.0 2.0 0.00 0.00 0.00 43 1013.4
20260902230038 97 109 3.0 3.0 0.00 0.00 0.00 44 1013.5
20260902225533 98 119 3.0 5.0 0.00 0.00 0.00 44 1013.4
20260902225032 99 128 2.0 2.0 0.00 0.00 0.00 42 1013.1
20260902224532 99 138 1.0 1.0 0.00 0.00 0.00 41 1013.3
20260902224028 99 168 1.0 1.0 0.00 0.00 0.00 37 1013.5
20260902223524 99 119 2.0 2.0 0.00 0.00 0.00 38 1013.7
20260902223023 99 134 1.0 1.0 0.00 0.00 0.00 39 1013.5
20260902222522 99 126 1.0 2.0 0.00 0.00 0.00 39 1013.4
20260902222020 100 139 4.0 5.0 0.00 0.00 0.00 38 1013.5
20260902221515 100 153 3.0 3.0 0.00 0.00 0.00 37 1013.5
20260902221011 100 182 3.0 3.0 0.00 0.00 0.00 37 1013.6
20260902220506 100 104 4.0 6.0 0.00 0.00 0.00 40 1013.5
20260902220000 100 130 3.0 3.0 0.00 0.00 0.00 39 1013.8
20260902215456 100 151 0.0 1.0 0.00 0.00 0.00 38 1013.4
20260902214952 101 109 0.0 0.0 0.00 0.00 0.00 37 1013.5
20260902214450 99 155 0.0 1.0 0.00 0.00 0.00 37 1013.5
20260902213950 98 168 1.0 2.0 0.00 0.00 0.00 43 1013.7
20260902213446 98 159 2.0 2.0 0.00 0.00 0.00 44 1013.8
20260902212939 101 129 1.0 1.0 0.00 0.00 0.00 38 1013.7
20260902212435 100 176 1.0 2.0 0.00 0.00 0.00 35 1013.6
20260902211926 98 127 2.0 2.0 0.00 0.00 0.00 42 1014.1
20260902211421 98 97 2.0 3.0 0.00 0.00 0.00 42 1013.9
20260902210917 101 124 5.0 6.0 0.00 0.00 0.00 39 1013.8
20260902210416 102 120 3.0 3.0 0.00 0.00 0.00 39 1013.9
20260902205914 100 140 1.0 1.0 0.00 0.00 0.00 39 1013.9
20260902205410 99 137 3.0 3.0 0.00 0.00 0.00 40 1014.0
20260902204906 99 166 0.0 0.0 0.00 0.00 0.00 39 1014.1
20260902204405 99 122 0.0 0.0 0.00 0.00 0.00 39 1014.1
20260902203901 101 143 1.0 1.0 0.00 0.00 0.00 39 1014.1
20260902203356 102 137 2.0 2.0 0.00 0.00 0.00 37 1014.4
20260902202850 100 121 3.0 3.0 0.00 0.00 0.00 38 1014.4
20260902202346 101 235 3.0 3.0 0.00 0.00 0.00 37 1014.6
20260902201843 101 204 1.0 2.0 0.00 0.00 0.00 37 1014.4
20260902201342 99 201 0.0 0.0 0.00 0.00 0.00 39 1014.6
20260902200837 99 248 3.0 5.0 0.00 0.00 0.00 38 1014.6
20260902200333 101 212 3.0 3.0 0.00 0.00 0.00 38 1014.8
20260902195828 100 191 2.0 2.0 0.00 0.00 0.00 38 1014.7
20260902195327 100 286 2.0 2.0 0.00 0.00 0.00 37 1014.9
20260902194822 101 212 5.0 6.0 0.00 0.00 0.00 36 1015.0
20260902194317 101 272 2.0 3.0 0.00 0.00 0.00 37 1015.1
20260902193812 101 174 3.0 3.0 0.00 0.00 0.00 38 1015.1
20260902193308 101 243 4.0 6.0 0.00 0.00 0.00 37 1015.2
20260902192807 102 44 1.0 1.0 0.00 0.00 0.00 36 1015.2
20260902192307 102 109 2.0 2.0 0.00 0.00 0.00 40 1015.2
20260902191805 101 121 5.0 6.0 0.00 0.00 0.00 40 1015.0
20260902191301 103 152 3.0 3.0 0.00 0.00 0.00 37 1015.3
20260902190756 103 140 2.0 2.0 0.00 0.00 0.00 37 1015.5
20260902190255 103 162 2.0 2.0 0.00 0.00 0.00 38 1015.3
20260902185751 102 115 1.0 1.0 0.00 0.00 0.00 36 1015.7
20260902185246 101 159 3.0 3.0 0.00 0.00 0.00 37 1015.6
20260902184743 99 229 2.0 2.0 0.00 0.00 0.00 39 1015.7
20260902184242 99 281 1.0 1.0 0.00 0.00 0.00 39 1015.8
20260902183738 98 211 2.0 2.0 0.00 0.00 0.00 43 1015.9
20260902183234 100 201 5.0 6.0 0.00 0.00 0.00 43 1015.9
20260902182730 100 229 4.0 5.0 0.00 0.00 0.00 39 1015.9
20260902182227 100 171 0.0 1.0 0.00 0.00 0.00 39 1015.9
20260902181723 97 151 2.0 2.0 0.00 0.00 0.00 42 1016.2
20260902181222 97 133 1.0 1.0 0.00 0.00 0.00 43 1016.2
20260902180717 100 169 4.0 5.0 0.00 0.00 0.00 42 1016.3
20260902180213 100 184 1.0 2.0 0.00 0.00 0.00 38 1016.3
20260902175708 100 242 2.0 2.0 0.00 0.00 0.00 42 1016.4
20260902175204 100 214 4.0 5.0 0.00 0.00 0.00 44 1016.4
20260902174659 100 145 3.0 3.0 0.00 0.00 0.00 40 1016.3
20260902174154 99 196 3.0 3.0 0.00 0.00 0.00 43 1016.5
20260902173650 99 147 5.0 7.0 0.00 0.00 0.00 42 1016.6
20260902173145 98 163 3.0 6.0 0.00 0.00 0.00 44 1016.5
20260902172639 97 221 2.0 2.0 0.00 0.00 0.00 42 1016.8
20260902172139 97 206 4.0 7.0 0.00 0.00 0.00 44 1016.9
20260902171634 97 254 3.0 5.0 0.00 0.00 0.00 43 1016.8
20260902171130 97 183 5.0 6.0 0.00 0.00 0.00 45 1016.8
20260902170625 98 154 5.0 6.0 0.00 0.00 0.00 43 1017.0
20260902170121 98 156 5.0 6.0 0.00 0.00 0.00 46 1017.1
20260902165621 97 202 5.0 6.0 0.00 0.00 0.00 47 1016.9
20260902165115 96 174 3.0 3.0 0.00 0.00 0.00 44 1017.1
20260902164610 97 181 2.0 2.0 0.00 0.00 0.00 45 1017.0
20260902164109 98 147 5.0 7.0 0.00 0.00 0.00 43 1017.1
20260902163605 97 188 2.0 2.0 0.00 0.00 0.00 44 1017.3
20260902163103 96 168 2.0 2.0 0.00 0.00 0.00 46 1017.5
20260902162603 96 151 4.0 8.0 0.00 0.00 0.00 47 1017.3
20260902162058 95 220 3.0 3.0 0.00 0.00 0.00 48 1017.5
20260902161552 95 181 5.0 6.0 0.00 0.00 0.00 47 1017.5
20260902161048 96 190 3.0 3.0 0.00 0.00 0.00 47 1017.5
20260902160544 95 177 2.0 2.0 0.00 0.00 0.00 47 1017.5
20260902160039 95 177 5.0 5.0 0.00 0.00 0.00 50 1017.6
20260902155532 94 202 6.0 7.0 0.00 0.00 0.00 49 1017.8
20260902155031 94 211 4.0 5.0 0.00 0.00 0.00 51 1017.7
20260902154527 93 202 3.0 3.0 0.00 0.00 0.00 52 1017.5
20260902154027 93 152 5.0 5.0 0.00 0.00 0.00 51 1017.6
20260902153525 93 146 6.0 7.0 0.00 0.00 0.00 50 1017.6
20260902153021 92 165 3.0 3.0 0.00 0.00 0.00 52 1017.6
20260902152517 92 201 7.0 7.0 0.00 0.00 0.00 54 1017.8
20260902152013 92 193 3.0 3.0 0.00 0.00 0.00 54 1017.7
20260902151509 91 190 6.0 7.0 0.00 0.00 0.00 55 1017.7
20260902151008 92 196 4.0 5.0 0.00 0.00 0.00 53 1017.7
20260902150503 91 157 3.0 3.0 0.00 0.00 0.00 54 1017.8
20260902145958 91 145 4.0 5.0 0.00 0.00 0.00 55 1017.6
20260902145453 91 209 4.0 6.0 0.00 0.00 0.00 54 1017.6
20260902144948 90 171 2.0 2.0 0.00 0.00 0.00 56 1017.7
20260902144444 90 208 4.0 6.0 0.00 0.00 0.00 56 1017.6
20260902143943 90 179 3.0 3.0 0.00 0.00 0.00 57 1017.5
20260902143439 90 172 0.0 0.0 0.00 0.00 0.00 58 1017.6
20260902142934 89 172 0.0 0.0 0.00 0.00 0.00 59 1017.7
20260902142430 89 172 0.0 0.0 0.00 0.00 0.00 60 1017.7
20260902141926 89 172 0.0 0.0 0.00 0.00 0.00 60 1017.7
20260902141421 88 172 0.0 0.0 0.00 0.00 0.00 61 1017.6
20260902140921 88 172 0.0 0.0 0.00 0.00 0.00 62 1018.0
20260902140416 87 172 0.0 0.0 0.00 0.00 0.00 61 1017.9
20260902135910 87 173 0.0 0.0 0.00 0.00 0.00 63 1017.8
20260902135406 88 173 0.0 0.0 0.00 0.00 0.00 62 1017.9
20260902134904 87 173 0.0 0.0 0.00 0.00 0.00 64 1018.1
20260902134401 86 173 0.0 0.0 0.00 0.00 0.00 65 1018.1
20260902133900 85 173 0.0 0.0 0.00 0.00 0.00 67 1017.9
20260902133355 83 173 0.0 0.0 0.00 0.00 0.00 70 1018.0
20260902132850 81 175 0.0 0.0 0.00 0.00 0.00 73 1018.0
20260902132345 79 173 0.0 0.0 0.00 0.00 0.00 78 1017.9
20260902131841 78 173 0.0 0.0 0.00 0.00 0.00 79 1018.0
20260902131337 77 179 0.0 0.0 0.00 0.00 0.00 83 1017.8
20260902130836 77 179 0.0 0.0 0.00 0.00 0.00 85 1017.9
20260902130333 77 180 0.0 0.0 0.00 0.00 0.00 86 1017.8
20260902125827 76 173 0.0 0.0 0.00 0.00 0.00 86 1017.7
20260902125323 77 180 0.0 0.0 0.00 0.00 0.00 85 1017.8
20260902124820 76 173 0.0 0.0 0.00 0.00 0.00 86 1017.9
20260902124315 76 179 0.0 0.0 0.00 0.00 0.00 85 1017.8
20260902123810 76 174 0.0 0.0 0.00 0.00 0.00 86 1017.9
20260902123306 76 173 0.0 0.0 0.00 0.00 0.00 85 1017.8
20260902122804 76 173 0.0 0.0 0.00 0.00 0.00 85 1017.7
20260902122300 75 173 0.0 0.0 0.00 0.00 0.00 84 1017.5
20260902121755 75 180 0.0 0.0 0.00 0.00 0.00 84 1017.6
20260902121249 75 180 0.0 0.0 0.00 0.00 0.00 83 1017.5
20260902120744 75 180 0.0 0.0 0.00 0.00 0.00 83 1017.3
20260902120241 75 181 0.0 0.0 0.00 0.00 0.00 83 1017.4
20260902115736 75 174 0.0 0.0 0.00 0.00 0.00 83 1017.0
20260902115232 75 174 0.0 0.0 0.00 0.00 0.00 83 1017.2
20260902114728 75 180 0.0 0.0 0.00 0.00 0.00 84 1017.1
20260902114223 75 180 0.0 0.0 0.00 0.00 0.00 84 1017.0
20260902113717 75 181 0.0 0.0 0.00 0.00 0.00 84 1017.0
20260902113213 75 181 0.0 0.0 0.00 0.00 0.00 84 1016.9
20260902112707 75 181 0.0 0.0 0.00 0.00 0.00 84 1016.8
20260902112205 75 181 0.0 0.0 0.00 0.00 0.00 84 1016.6
20260902111659 75 179 0.0 0.0 0.00 0.00 0.00 85 1017.0
20260902111155 75 180 0.0 0.0 0.00 0.00 0.00 85 1016.8
20260902110651 75 177 0.0 0.0 0.00 0.00 0.00 84 1017.0
20260902110147 75 174 0.0 0.0 0.00 0.00 0.00 84 1016.9
20260902105646 75 180 0.0 0.0 0.00 0.00 0.00 83 1016.7
20260902105142 76 180 0.0 0.0 0.00 0.00 0.00 83 1016.7
20260902104637 76 174 0.0 0.0 0.00 0.00 0.00 83 1016.7
20260902104132 77 174 0.0 0.0 0.00 0.00 0.00 82 1016.6
20260902103631 77 180 0.0 0.0 0.00 0.00 0.00 80 1016.5
20260902103127 77 178 0.0 0.0 0.00 0.00 0.00 79 1016.6
20260902102623 77 180 0.0 0.0 0.00 0.00 0.00 79 1016.6
20260902102120 78 178 0.0 0.0 0.00 0.00 0.00 78 1016.7
20260902101615 78 180 0.0 0.0 0.00 0.00 0.00 76 1016.6
20260902101115 78 180 0.0 0.0 0.00 0.00 0.00 76 1016.7
20260902100609 78 173 0.0 0.0 0.00 0.00 0.00 77 1016.5
20260902100104 78 178 0.0 0.0 0.00 0.00 0.00 78 1016.5
20260902095603 78 180 0.0 0.0 0.00 0.00 0.00 79 1016.4
20260902095103 78 172 0.0 0.0 0.00 0.00 0.00 79 1016.5
20260902094558 78 180 0.0 0.0 0.00 0.00 0.00 80 1016.5
20260902094054 78 180 0.0 0.0 0.00 0.00 0.00 80 1016.4
20260902093553 78 173 0.0 0.0 0.00 0.00 0.00 80 1016.4
20260902093048 78 180 0.0 0.0 0.00 0.00 0.00 79 1016.5
20260902092537 77 180 0.0 0.0 0.00 0.00 0.00 81 1016.2
20260902092032 77 171 1.0 1.0 0.00 0.00 0.00 81 1016.6
20260902091527 77 171 0.0 0.0 0.00 0.00 0.00 81 1016.4
20260902091024 77 172 0.0 0.0 0.00 0.00 0.00 81 1016.3
20260902090520 77 171 0.0 0.0 0.00 0.00 0.00 80 1016.4
20260902090019 77 171 0.0 0.0 0.00 0.00 0.00 80 1016.6
20260902085518 77 171 0.0 0.0 0.00 0.00 0.00 80 1016.5
20260902085013 77 173 0.0 0.0 0.00 0.00 0.00 80 1016.6
20260902084510 77 174 0.0 0.0 0.00 0.00 0.00 80 1016.4
20260902084006 77 174 0.0 0.0 0.00 0.00 0.00 79 1016.4
20260902083501 78 180 0.0 0.0 0.00 0.00 0.00 79 1016.1
20260902082954 78 172 0.0 0.0 0.00 0.00 0.00 79 1016.3
20260902082450 77 180 0.0 0.0 0.00 0.00 0.00 80 1016.1
20260902081946 77 180 0.0 0.0 0.00 0.00 0.00 81 1016.4
20260902081443 77 180 0.0 0.0 0.00 0.00 0.00 82 1016.2
20260902080938 77 180 0.0 0.0 0.00 0.00 0.00 83 1016.1
20260902080433 76 178 0.0 0.0 0.00 0.00 0.00 83 1016.2
20260902075933 76 179 0.0 0.0 0.00 0.00 0.00 84 1016.0
20260902075429 76 180 0.0 0.0 0.00 0.00 0.00 83 1016.3
20260902074924 76 180 0.0 0.0 0.00 0.00 0.00 84 1016.1
20260902074420 76 179 0.0 0.0 0.00 0.00 0.00 86 1016.2
20260902073914 76 180 0.0 0.0 0.00 0.00 0.00 86 1016.2
20260902073411 76 179 0.0 0.0 0.00 0.00 0.00 86 1016.1
20260902072906 76 180 0.0 0.0 0.00 0.00 0.00 86 1016.2
20260902072402 76 181 0.0 0.0 0.00 0.00 0.00 85 1015.9
20260902071858 77 180 0.0 0.0 0.00 0.00 0.00 84 1016.1
20260902071358 76 174 0.0 0.0 0.00 0.00 0.00 85 1016.1
20260902070855 76 182 0.0 0.0 0.00 0.00 0.00 86 1016.1
20260902070350 77 181 0.0 0.0 0.00 0.00 0.00 89 1016.2
20260902065848 77 172 0.0 0.0 0.00 0.00 0.00 90 1016.2
20260902065344 77 173 0.0 0.0 0.00 0.00 0.00 89 1016.4
20260902064839 77 180 0.0 0.0 0.00 0.00 0.00 90 1016.1
20260902064335 76 180 0.0 0.0 0.00 0.00 0.00 90 1016.0
20260902063831 76 180 0.0 0.0 0.00 0.00 0.00 90 1016.0
20260902063330 77 180 0.0 0.0 0.00 0.00 0.00 89 1016.2
20260902062825 77 180 0.0 0.0 0.00 0.00 0.00 89 1016.3
20260902062320 77 180 0.0 0.0 0.00 0.00 0.00 88 1016.0
20260902061819 78 177 0.0 0.0 0.00 0.00 0.00 89 1016.2
20260902061315 78 176 0.0 0.0 0.00 0.00 0.00 88 1016.1
20260902060811 77 179 0.0 0.0 0.00 0.00 0.00 87 1015.8
20260902060306 77 180 0.0 0.0 0.00 0.00 0.00 86 1016.0
20260902055801 77 178 0.0 0.0 0.00 0.00 0.00 86 1015.9
20260902055252 77 180 0.0 0.0 0.00 0.00 0.00 86 1016.1
20260902054747 77 177 0.0 0.0 0.00 0.00 0.00 87 1015.9
20260902054243 77 180 0.0 0.0 0.00 0.00 0.00 87 1016.0
20260902053738 77 174 0.0 0.0 0.00 0.00 0.00 88 1015.9
20260902053237 77 180 0.0 0.0 0.00 0.00 0.00 87 1016.1
20260902052737 77 179 0.0 0.0 0.00 0.00 0.00 88 1015.8
20260902052232 78 180 0.0 0.0 0.00 0.00 0.00 88 1015.8
20260902051731 78 174 0.0 0.0 0.00 0.00 0.00 89 1015.8
20260902051221 78 173 0.0 0.0 0.00 0.00 0.00 88 1015.9
20260902050715 78 180 0.0 0.0 0.00 0.00 0.00 87 1016.1
20260902050210 78 180 0.0 0.0 0.00 0.00 0.00 87 1015.9
20260902045705 78 180 0.0 0.0 0.00 0.00 0.00 87 1015.8
20260902045201 77 180 0.0 0.0 0.00 0.00 0.00 87 1015.7
20260902044656 78 180 0.0 0.0 0.00 0.00 0.00 86 1015.8
20260902044152 78 174 0.0 0.0 0.00 0.00 0.00 86 1015.7
20260902043646 78 180 0.0 0.0 0.00 0.00 0.00 85 1015.7
20260902043142 78 180 0.0 0.0 0.00 0.00 0.00 84 1015.7
20260902042641 78 180 0.0 0.0 0.00 0.00 0.00 84 1015.9
20260902042136 79 174 0.0 0.0 0.00 0.00 0.00 85 1015.7
20260902041631 79 180 0.0 0.0 0.00 0.00 0.00 85 1015.5
20260902041126 79 181 1.0 1.0 0.00 0.00 0.00 84 1015.6
20260902040625 78 181 1.0 1.0 0.00 0.00 0.00 85 1015.5
20260902040121 79 180 0.0 0.0 0.00 0.00 0.00 84 1015.5
20260902035619 79 181 1.0 1.0 0.00 0.00 0.00 83 1015.6
20260902035114 79 172 1.0 1.0 0.00 0.00 0.00 84 1015.5
20260902034613 80 176 0.0 0.0 0.00 0.00 0.00 83 1015.6
20260902034107 80 178 0.0 0.0 0.00 0.00 0.00 83 1015.7
20260902033606 80 170 0.0 1.0 0.00 0.00 0.00 83 1015.7
20260902033101 80 171 0.0 0.0 0.00 0.00 0.00 82 1015.5
20260902032559 80 179 0.0 0.0 0.00 0.00 0.00 82 1015.6
20260902032055 80 180 0.0 0.0 0.00 0.00 0.00 81 1015.5
20260902031549 80 179 0.0 0.0 0.00 0.00 0.00 81 1015.1
20260902031045 80 175 0.0 0.0 0.00 0.00 0.00 81 1015.7
20260902030540 80 172 1.0 1.0 0.00 0.00 0.00 80 1015.5
20260902030039 80 182 2.0 2.0 0.00 0.00 0.00 79 1015.6
20260902025534 81 179 0.0 0.0 0.00 0.00 0.00 80 1015.3
20260902025030 80 181 2.0 2.0 0.00 0.00 0.00 78 1015.6
20260902024525 81 181 1.0 1.0 0.00 0.00 0.00 78 1015.5
20260902024020 81 180 1.0 1.0 0.00 0.00 0.00 77 1015.0
20260902023515 81 173 0.0 0.0 0.00 0.00 0.00 77 1014.9
20260902023010 81 179 0.0 1.0 0.00 0.00 0.00 76 1015.1
20260902022504 82 180 1.0 2.0 0.00 0.00 0.00 75 1015.0
20260902022000 82 174 0.0 0.0 0.00 0.00 0.00 76 1015.2
20260902021455 82 178 0.0 0.0 0.00 0.00 0.00 72 1014.8
20260902020950 82 175 0.0 0.0 0.00 0.00 0.00 74 1015.0
20260902020446 82 174 0.0 0.0 0.00 0.00 0.00 70 1014.8
20260902015942 82 176 0.0 0.0 0.00 0.00 0.00 71 1014.8
20260902015437 82 177 0.0 1.0 0.00 0.00 0.00 68 1014.8
20260902014932 84 177 0.0 0.0 0.00 0.00 0.00 67 1014.6
20260902014429 83 174 0.0 0.0 0.00 0.00 0.00 68 1014.8
20260902013928 84 177 0.0 0.0 0.00 0.00 0.00 67 1014.7
20260902013424 84 177 0.0 0.0 0.00 0.00 0.00 68 1014.4
20260902012919 84 176 0.0 0.0 0.00 0.00 0.00 66 1014.4
20260902012414 85 176 0.0 0.0 0.00 0.00 0.00 65 1014.3
20260902011910 85 176 0.0 0.0 0.00 0.00 0.00 70 1014.3
20260902011405 85 176 0.0 0.0 0.00 0.00 0.00 64 1014.4
20260902010905 86 177 0.0 0.0 0.00 0.00 0.00 62 1014.3
20260902010359 86 177 0.0 0.0 0.00 0.00 0.00 66 1014.4
20260902005858 86 176 0.0 0.0 0.00 0.00 0.00 60 1014.5
20260902005352 87 177 0.0 0.0 0.00 0.00 0.00 59 1014.4
20260902004848 87 177 0.0 0.0 0.00 0.00 0.00 57 1014.7
20260902004342 88 176 0.0 0.0 0.00 0.00 0.00 57 1014.5
20260902003838 88 177 0.0 0.0 0.00 0.00 0.00 56 1014.3